This demonstration page uses our WeatherBlox Daily Observations layout. Learn more.

Left ArrowRight Arrow

39.01783, -85.05884

Hourly Observations for July 1, 2020

Temp ( °F °C ) Dew Point ( °F °C ) Humidity (%) Winds ( mph kmh ) Pressure ( in mb ) Visibility ( mi km ) Precip ( " mm )
12:52 am 00:52 Partly Cloudy 73 22.8 68 20 84 84 ESE 3 6 29.88 1012 10 16 0.00 0.00
1:52 am 01:52 Mostly Clear 71 21.7 67 19.4 87 87 Calm 29.87 1012 10 16 0.00 0.00
2:52 am 02:52 Mostly Clear 70 21.1 67 19.4 90 90 Calm 29.87 1011 9 14 0.00 0.00
3:52 am 03:52 Mostly Clear 70 21.1 67 19.4 90 90 Calm 29.87 1011 9 14 0.00 0.00
4:52 am 04:52 Mostly Clear with Mist and Fog 70 21.1 67 19.4 90 90 Calm 29.88 1012 6 10 0.00 0.00
5:52 am 05:52 Mostly Clear 71 21.7 67 19.4 87 87 Calm 29.88 1012 7 11 0.00 0.00
6:52 am 06:52 Partly Cloudy with Mist and Fog 71 21.7 68 20 90 90 Calm 29.90 1013 5 8 0.00 0.00
7:52 am 07:52 Mostly Sunny 74 23.3 69 20.6 85 85 Calm 29.90 1013 8 13 0.00 0.00
8:52 am 08:52 Mostly Sunny 76 24.4 70 21.1 82 82 NE 8 13 29.90 1013 8 13 0.00 0.00
9:52 am 09:52 Mostly Sunny 79 26.1 70 21.1 74 74 E 3 6 29.91 1013 10 16 0.00 0.00
10:52 am 10:52 Partly Cloudy 82 27.8 70 21.1 67 67 NE 6 9 29.90 1013 10 16 0.00 0.00
11:52 am 11:52 Mostly Cloudy 83 28.3 69 20.6 63 63 ENE 3 6 29.91 1013 10 16 0.00 0.00
12:52 pm 12:52 Mostly Cloudy 84 28.9 69 20.6 61 61 NNW 5 7 29.91 1013 10 16 0.00 0.00
1:52 pm 13:52 Mostly Sunny 87 30.6 68 20 53 53 VRB 3 6 29.90 1012 8 13 0.00 0.00
2:52 pm 14:52 Partly Cloudy 88 31.1 67 19.4 50 50 NNE 6 9 29.88 1012 8 13 0.00 0.00
3:52 pm 15:52 Mostly Sunny 89 31.7 66 18.9 47 47 VRB 6 9 29.85 1011 9 14 0.00 0.00
4:52 pm 16:52 Mostly Sunny 88 31.1 66 18.9 48 48 E 7 11 29.84 1011 9 14 0.00 0.00
5:52 pm 17:52 Mostly Sunny 90 32.2 65 18.3 44 44 NW 6 9 29.83 1010 9 14 0.00 0.00
6:52 pm 18:52 Partly Cloudy 89 31.7 65 18.3 45 45 NNW 8 13 29.83 1010 9 14 0.00 0.00
7:52 pm 19:52 Partly Cloudy 85 29.4 67 19.4 55 55 ENE 9 15 29.85 1011 8 13 0.00 0.00
8:52 pm 20:52 Partly Cloudy 84 28.9 67 19.4 57 57 E 9 15 29.87 1011 8 13 0.00 0.00
9:52 pm 21:52 Mostly Clear 81 27.2 66 18.9 61 61 E 9 15 29.88 1012 9 14 0.00 0.00
10:52 pm 22:52 Clear 77 25 67 19.4 71 71 VRB 3 6 29.90 1013 9 14 0.00 0.00
11:52 pm 23:52 Clear 75 23.9 68 20 79 79 Calm 29.90 1012 9 14 0.00 0.00

Powered by AerisWeather